TimeMST,TemperatureF,Dew PointF,Humidity,Sea Level PressureIn,VisibilityMPH,Wind Direction,Wind SpeedMPH,Gust SpeedMPH,PrecipitationIn,Events,Conditions,WindDirDegrees,DateUTC
12:53 AM,48.9,16.0,27,29.96,10.0,SSE,3.5,-,N/A,,Clear,150,2013-02-17 07:53:00
1:53 AM,51.1,15.1,24,29.94,10.0,SE,4.6,-,N/A,,Clear,140,2013-02-17 08:53:00
2:53 AM,50.0,14.0,24,29.92,10.0,ESE,9.2,-,N/A,,Clear,110,2013-02-17 09:53:00
3:53 AM,50.0,12.9,23,29.91,10.0,ESE,8.1,-,N/A,,Clear,120,2013-02-17 10:53:00
4:53 AM,48.9,14.0,25,29.90,10.0,ESE,11.5,-,N/A,,Clear,120,2013-02-17 11:53:00
5:53 AM,48.0,12.9,24,29.90,10.0,ESE,8.1,-,N/A,,Clear,120,2013-02-17 12:53:00
6:53 AM,44.1,16.0,32,29.91,10.0,SE,13.8,-,N/A,,Clear,140,2013-02-17 13:53:00
7:53 AM,48.0,15.1,27,29.92,10.0,SSE,11.5,-,N/A,,Clear,150,2013-02-17 14:53:00
8:53 AM,52.0,16.0,24,29.93,10.0,SE,11.5,-,N/A,,Clear,130,2013-02-17 15:53:00
9:53 AM,59.0,12.9,16,29.91,10.0,SE,9.2,-,N/A,,Clear,130,2013-02-17 16:53:00
10:53 AM,63.0,15.1,16,29.91,10.0,South,3.5,-,N/A,,Clear,190,2013-02-17 17:53:00
11:53 AM,69.1,14.0,12,29.88,10.0,NW,6.9,-,N/A,,Clear,310,2013-02-17 18:53:00
12:53 PM,71.1,12.0,10,29.85,10.0,WSW,8.1,17.3,N/A,,Clear,250,2013-02-17 19:53:00
1:53 PM,73.0,7.0,8,29.82,10.0,West,10.4,-,N/A,,Clear,260,2013-02-17 20:53:00
2:53 PM,73.0,3.0,6,29.81,10.0,WSW,8.1,-,N/A,,Clear,250,2013-02-17 21:53:00
3:53 PM,73.0,7.0,8,29.80,10.0,West,12.7,21.9,N/A,,Clear,280,2013-02-17 22:53:00
4:53 PM,71.6,8.6,9,29.89,10.0,West,16.1,23.0,N/A,,Clear,280,2013-02-17 23:53:00
5:53 PM,68.0,7.0,9,29.83,10.0,West,11.5,-,N/A,,Clear,270,2013-02-18 00:53:00
6:53 PM,63.0,12.0,14,29.87,10.0,West,8.1,-,N/A,,Clear,270,2013-02-18 01:53:00
7:53 PM,61.0,14.0,16,29.88,10.0,WNW,4.6,-,N/A,,Clear,290,2013-02-18 02:53:00
8:53 PM,57.0,17.1,21,29.91,10.0,West,8.1,-,N/A,,Clear,280,2013-02-18 03:53:00
10:53 PM,52.0,18.0,26,29.92,10.0,SW,4.6,-,N/A,,Clear,220,2013-02-18 05:53:00
11:53 PM,48.0,21.0,34,29.92,10.0,Variable,5.8,-,N/A,,Clear,0,2013-02-18 06:53:00